Date String (YYYY-MM-DD hh:mm:ss) UTC,Instrument flags,absolute air pressure of the measurement (hPa),sample flow rate (lpm),inlet stack bypass flow (lpm),air temperature of the measurement (°C),ambient temperature measured by the external sensor (°C),aerosol sample conditioner tube jacket temperature (°C),OPC LED temperature (°C),internal box temperature (°C),relative humidity of the measurement (%),span deviation,mass concentration of particles derived from Lorenz-Mie calculation of OPC scattering (μg/m³),mass concentration of particles derived from Lorenz-Mie calculation of OPC scattering (μg/m³),mass concentration of particles derived from Lorenz-Mie calculation of OPC scattering (μg/m³)
DateTimeUTC,F1_M11,P_M11,Q1_M11,Q2_M11,T1_M11,T2_M11,T3_M11,T4_M11,T5_M11,U1_M11,ZSPAN_M11,X0_M11,X2_M11,X1_M11
2023-12-27 02:00:00,SystemResetWarning,0826.2,5.00,000.00,019.4,018.8,000.0,027.7,020.7,13.4,0000.0,0000.60,0000.27,0000.18
2023-12-27 02:01:00,SystemResetWarning,0826.3,5.00,000.00,019.4,018.8,000.0,027.7,020.7,13.5,0000.0,0000.63,0000.28,0000.19
2023-12-27 02:02:00,SystemResetWarning,0826.2,5.00,000.00,019.4,018.8,000.0,027.7,020.7,13.4,0000.0,0000.64,0000.29,0000.19
2023-12-27 02:03:00,SystemResetWarning,0826.3,5.00,000.00,019.4,018.8,000.0,027.7,020.7,13.5,0000.0,0000.69,0000.33,0000.20
2023-12-27 02:04:00,SystemResetWarning,0826.2,5.01,000.00,019.4,018.8,000.0,027.7,020.7,13.3,0000.0,0000.71,0000.34,0000.20
2023-12-27 02:05:00,SystemResetWarning,0826.2,5.00,000.00,019.4,018.8,000.0,027.7,020.7,13.4,0000.0,0000.75,0000.35,0000.21
2023-12-27 02:06:00,SystemResetWarning,0826.3,5.00,000.00,019.4,018.8,000.0,027.7,020.7,13.2,0000.0,0000.72,0000.35,0000.22
2023-12-27 02:07:00,SystemResetWarning,0826.3,5.00,000.00,019.4,018.8,000.0,027.7,020.7,13.3,0000.0,0000.68,0000.35,0000.23
2023-12-27 02:08:00,SystemResetWarning,0826.2,5.00,000.00,019.4,018.8,000.0,027.7,020.7,13.4,0000.0,0000.69,0000.36,0000.24
2023-12-27 02:09:00,SystemResetWarning,0826.3,5.00,000.00,019.4,018.8,000.0,027.7,020.7,13.4,0000.0,0000.65,0000.36,0000.24
2023-12-27 02:10:00,SystemResetWarning,0826.3,5.00,000.00,019.4,018.8,000.0,027.7,020.7,13.5,0000.0,0000.54,0000.36,0000.25
2023-12-27 02:11:00,SystemResetWarning,0826.4,4.99,000.00,019.4,018.8,000.0,027.7,020.7,13.3,0000.0,0000.50,0000.34,0000.25
2023-12-27 02:12:00,SystemResetWarning,0826.4,5.00,000.00,019.4,018.8,000.0,027.7,020.7,13.3,0000.0,0000.47,0000.33,0000.24
2023-12-27 02:13:00,SystemResetWarning,0826.4,5.00,000.00,019.4,018.8,000.0,027.7,020.7,13.4,0000.0,0000.46,0000.32,0000.24
2023-12-27 02:14:00,SystemResetWarning,0826.4,5.00,000.00,019.4,018.8,000.0,027.7,020.7,13.4,0000.0,0000.41,0000.30,0000.24
2023-12-27 02:15:00,SystemResetWarning,0826.4,4.99,000.00,019.4,018.9,000.0,027.7,020.7,13.3,0000.0,0000.40,0000.29,0000.24
2023-12-27 02:16:00,SystemResetWarning,0826.4,5.00,000.00,019.4,018.9,000.0,027.7,020.7,13.3,0000.0,0000.38,0000.29,0000.25
2023-12-27 02:17:00,SystemResetWarning,0826.3,5.00,000.00,019.4,018.9,000.0,027.7,020.7,13.3,0000.0,0000.36,0000.28,0000.24
2023-12-27 02:18:00,SystemResetWarning,0826.3,5.00,000.00,019.4,018.9,000.0,027.7,020.7,13.3,0000.0,0000.36,0000.28,0000.24
2023-12-27 02:19:00,SystemResetWarning,0826.4,5.00,000.00,019.4,018.9,000.0,027.7,020.7,13.4,0000.0,0000.41,0000.29,0000.24
2023-12-27 02:20:00,SystemResetWarning,0826.3,5.00,000.00,019.4,018.9,000.0,027.7,020.7,13.5,0000.0,0000.48,0000.32,0000.24
2023-12-27 02:21:00,SystemResetWarning,0826.4,5.01,000.00,019.4,018.9,000.0,027.7,020.8,13.3,0000.0,0000.62,0000.35,0000.25
2023-12-27 02:22:00,SystemResetWarning,0826.4,5.01,000.00,019.4,018.9,000.0,027.8,020.7,13.2,0000.0,0000.75,0000.37,0000.26
2023-12-27 02:23:00,SystemResetWarning,0826.5,4.99,000.00,019.4,018.9,000.0,027.7,020.7,13.2,0000.0,0000.76,0000.38,0000.26
2023-12-27 02:24:00,SystemResetWarning,0826.5,5.00,000.00,019.4,018.9,000.0,027.7,020.7,13.5,0000.0,0000.78,0000.39,0000.26
2023-12-27 02:25:00,SystemResetWarning,0826.5,5.00,000.00,019.5,018.9,000.0,027.7,020.8,13.6,0000.0,0000.80,0000.40,0000.27
2023-12-27 02:26:00,SystemResetWarning,0826.5,5.00,000.00,019.5,018.9,000.0,027.8,020.8,13.4,0000.0,0000.83,0000.40,0000.27
2023-12-27 02:27:00,SystemResetWarning,0826.5,5.01,000.00,019.5,018.9,000.0,027.8,020.8,13.3,0000.0,0000.84,0000.41,0000.27
2023-12-27 02:28:00,SystemResetWarning,0826.6,5.01,000.00,019.5,018.9,000.0,027.8,020.8,13.4,0000.0,0000.86,0000.42,0000.27
2023-12-27 02:29:00,SystemResetWarning,0826.6,5.01,000.00,019.5,018.9,000.0,027.8,020.8,13.6,0000.0,0000.90,0000.44,0000.28
2023-12-27 02:30:00,SystemResetWarning,0826.6,5.00,000.00,019.5,018.9,000.0,027.8,020.8,13.6,0000.0,0000.86,0000.43,0000.28
2023-12-27 02:31:00,SystemResetWarning,0826.6,5.00,000.00,019.5,018.9,000.0,027.8,020.8,13.6,0000.0,0000.82,0000.41,0000.29
2023-12-27 02:32:00,SystemResetWarning,0826.6,5.00,000.00,019.5,018.9,000.0,027.8,020.8,13.9,0000.0,0000.65,0000.38,0000.27
2023-12-27 02:33:00,SystemResetWarning,0826.6,4.99,000.00,019.5,018.9,000.0,027.8,020.8,13.9,0000.0,0000.53,0000.35,0000.26
2023-12-27 02:34:00,SystemResetWarning,0826.6,5.01,000.00,019.5,018.9,000.0,027.8,020.8,13.9,0000.0,0000.53,0000.35,0000.27
2023-12-27 02:35:00,SystemResetWarning,0826.6,5.01,000.00,019.5,018.9,000.0,027.8,020.8,13.9,0000.0,0000.60,0000.36,0000.26
2023-12-27 02:36:00,SystemResetWarning,0826.6,5.00,000.00,019.5,018.9,000.0,027.8,020.8,13.9,0000.0,0000.64,0000.37,0000.26
2023-12-27 02:37:00,SystemResetWarning,0826.6,5.00,000.00,019.5,018.9,000.0,027.8,020.8,13.9,0000.0,0000.60,0000.35,0000.26
2023-12-27 02:38:00,SystemResetWarning,0826.6,5.00,000.00,019.5,018.9,000.0,027.8,020.8,13.8,0000.0,0000.58,0000.34,0000.25
2023-12-27 02:39:00,SystemResetWarning,0826.6,4.99,000.00,019.5,018.9,000.0,027.8,020.8,13.8,0000.0,0000.56,0000.33,0000.25
2023-12-27 02:40:00,SystemResetWarning,0826.6,5.00,000.00,019.5,018.9,000.0,027.8,020.8,13.5,0000.0,0000.49,0000.30,0000.24
2023-12-27 02:41:00,SystemResetWarning,0826.6,5.00,000.00,019.5,018.9,000.0,027.8,020.8,13.4,0000.0,0000.48,0000.28,0000.23
2023-12-27 02:42:00,SystemResetWarning,0826.6,4.99,000.00,019.5,018.9,000.0,027.8,020.8,13.5,0000.0,0000.58,0000.30,0000.23
2023-12-27 02:43:00,SystemResetWarning,0826.7,5.00,000.00,019.5,018.9,000.0,027.8,020.8,13.6,0000.0,0000.60,0000.29,0000.23
2023-12-27 02:44:00,SystemResetWarning,0826.8,5.00,000.00,019.5,018.9,000.0,027.8,020.8,13.7,0000.0,0000.60,0000.30,0000.23
2023-12-27 02:45:00,SystemResetWarning,0826.8,5.00,000.00,019.5,018.9,000.0,027.8,020.8,13.8,0000.0,0000.60,0000.30,0000.23
2023-12-27 02:46:00,SystemResetWarning,0826.8,5.01,000.00,019.5,018.9,000.0,027.8,020.8,13.8,0000.0,0000.55,0000.30,0000.24
2023-12-27 02:47:00,SystemResetWarning,0826.8,5.00,000.00,019.5,018.9,000.0,027.8,020.8,13.8,0000.0,0000.49,0000.29,0000.25
2023-12-27 02:48:00,SystemResetWarning,0826.8,5.00,000.00,019.5,018.9,000.0,027.8,020.8,13.6,0000.0,0000.51,0000.31,0000.26
2023-12-27 02:49:00,SystemResetWarning,0826.8,5.00,000.00,019.5,018.9,000.0,027.8,020.8,13.5,0000.0,0000.56,0000.33,0000.26
2023-12-27 02:50:00,SystemResetWarning,0826.8,5.00,000.00,019.5,018.9,000.0,027.8,020.8,13.5,0000.0,0000.58,0000.34,0000.27
2023-12-27 02:51:00,SystemResetWarning,0826.8,5.00,000.00,019.5,018.9,000.0,027.8,020.8,13.5,0000.0,0000.60,0000.35,0000.28
2023-12-27 02:52:00,SystemResetWarning,0826.9,4.99,000.00,019.5,018.9,000.0,027.8,020.8,13.5,0000.0,0000.63,0000.37,0000.29
2023-12-27 02:53:00,SystemResetWarning,0826.8,5.00,000.00,019.5,018.9,000.0,027.8,020.9,13.7,0000.0,0000.62,0000.36,0000.29
2023-12-27 02:54:00,SystemResetWarning,0826.8,5.00,000.00,019.5,018.9,000.0,027.8,020.8,13.6,0000.0,0000.62,0000.35,0000.29
2023-12-27 02:55:00,SystemResetWarning,0826.9,5.00,000.00,019.5,018.9,000.0,027.8,020.8,13.5,0000.0,0000.61,0000.34,0000.28
2023-12-27 02:56:00,SystemResetWarning,0826.9,5.00,000.00,019.5,018.9,000.0,027.8,020.8,13.6,0000.0,0000.60,0000.33,0000.28
2023-12-27 02:57:00,SystemResetWarning,0826.9,5.00,000.00,019.5,018.9,000.0,027.8,020.9,13.4,0000.0,0000.57,0000.32,0000.27
2023-12-27 02:58:00,SystemResetWarning,0826.9,5.00,000.00,019.5,018.9,000.0,027.8,020.9,13.4,0000.0,0000.58,0000.32,0000.27
2023-12-27 02:59:00,SystemResetWarning,0826.9,5.00,000.00,019.5,018.9,000.0,027.8,020.9,13.4,0000.0,0000.58,0000.32,0000.26
